• In Deutschland
  • Länderverzeichnis
  • Für 7 Tage
  • Wassertemperatur
  • Satellitenkarten
  • Wetterkarte
  • Widgets
  • user-avatar
    Anmelden

    Stündliche Wetter Böblingen

    Heute, 12 Dezember, Dienstag

    Zeit Temperatur Niederschläge Wind Luftdruck Luftfeuchtigkeit
    00:00 +2°C° 0,1 mm 5 m/S 701 mmHg 84%
    01:00 +2°C° 0 mm 5 m/S 702 mmHg 85%
    02:00 +1°C° 0,1 mm 5 m/S 703 mmHg 84%
    03:00 +1°C° 0,1 mm 6 m/S 705 mmHg 83%
    04:00 -1°C° 0,1 mm 7 m/S 706 mmHg 82%
    05:00 -2°C° 0 mm 7 m/S 707 mmHg 83%
    06:00 -2°C° 0 mm 6 m/S 709 mmHg 83%
    07:00 -3°C° 0 mm 6 m/S 710 mmHg 84%
    08:00 -3°C° 0 mm 6 m/S 711 mmHg 84%
    09:00 -1°C° 0 mm 5 m/S 713 mmHg 83%
    10:00 -1°C° 0 mm 5 m/S 714 mmHg 83%
    11:00 -1°C° 0 mm 5 m/S 715 mmHg 82%
    12:00 0°C° 0 mm 5 m/S 715 mmHg 82%
    13:00 0°C° 0 mm 4 m/S 716 mmHg 81%
    14:00 0°C° 0 mm 4 m/S 717 mmHg 82%
    15:00 0°C° 0 mm 3 m/S 717 mmHg 83%
    16:00 0°C° 0 mm 3 m/S 718 mmHg 84%
    17:00 -1°C° 0 mm 3 m/S 718 mmHg 86%
    18:00 -1°C° 0 mm 3 m/S 719 mmHg 87%
    19:00 -2°C° 0 mm 2 m/S 719 mmHg 89%
    20:00 -2°C° 0 mm 2 m/S 720 mmHg 89%
    21:00 -2°C° 0 mm 2 m/S 721 mmHg 89%
    22:00 -2°C° 0 mm 2 m/S 721 mmHg 89%
    23:00 -4°C° 0 mm 3 m/S 722 mmHg 89%

    Morgen, 13 Dezember, Mittwoch

    Zeit Temperatur Niederschläge Wind Luftdruck Luftfeuchtigkeit
    00:00 -4°C° 0 mm 3 m/S 722 mmHg 89%
    01:00 -4°C° 0 mm 3 m/S 722 mmHg 89%
    02:00 -4°C° 0 mm 3 m/S 722 mmHg 89%
    03:00 -4°C° 0 mm 3 m/S 722 mmHg 89%
    04:00 -4°C° 0 mm 3 m/S 722 mmHg 88%
    05:00 -4°C° 0 mm 3 m/S 722 mmHg 87%
    06:00 -4°C° 0 mm 3 m/S 722 mmHg 86%
    07:00 -4°C° 0 mm 3 m/S 722 mmHg 85%
    08:00 -3°C° 0 mm 4 m/S 721 mmHg 80%
    09:00 -2°C° 0 mm 4 m/S 721 mmHg 76%
    10:00 -2°C° 0 mm 5 m/S 720 mmHg 72%
    11:00 -1°C° 0,1 mm 5 m/S 719 mmHg 70%
    12:00 0°C° 0,1 mm 5 m/S 719 mmHg 69%
    13:00 +1°C° 0,1 mm 5 m/S 718 mmHg 67%
    14:00 +1°C° 0,4 mm 5 m/S 717 mmHg 71%
    15:00 +1°C° 0,4 mm 5 m/S 716 mmHg 74%
    16:00 +1°C° 0,4 mm 5 m/S 715 mmHg 78%
    17:00 +1°C° 0,6 mm 6 m/S 715 mmHg 79%
    18:00 +1°C° 0,6 mm 6 m/S 714 mmHg 81%
    19:00 +2°C° 0,6 mm 6 m/S 714 mmHg 82%
    20:00 +2°C° 0,2 mm 6 m/S 713 mmHg 83%
    21:00 +2°C° 0,2 mm 6 m/S 712 mmHg 83%
    22:00 +2°C° 0,2 mm 6 m/S 712 mmHg 84%
    23:00 +3°C° 0,3 mm 7 m/S 711 mmHg 84%

    übermorgen, 14 Dezember, Donnerstag

    Zeit Temperatur Niederschläge Wind Luftdruck Luftfeuchtigkeit
    00:00 +3°C° 0,3 mm 7 m/S 711 mmHg 84%
    01:00 +4°C° 0,3 mm 8 m/S 710 mmHg 84%
    02:00 +4°C° 0,4 mm 8 m/S 710 mmHg 85%
    03:00 +4°C° 0,4 mm 8 m/S 710 mmHg 86%
    04:00 +4°C° 0,4 mm 7 m/S 709 mmHg 87%
    05:00 +4°C° 0,4 mm 7 m/S 710 mmHg 84%
    06:00 +3°C° 0,4 mm 7 m/S 710 mmHg 82%
    07:00 +3°C° 0,4 mm 7 m/S 710 mmHg 80%
    08:00 +2°C° 0,3 mm 7 m/S 711 mmHg 81%
    09:00 +2°C° 0,3 mm 6 m/S 711 mmHg 82%
    10:00 +2°C° 0,3 mm 6 m/S 712 mmHg 83%
    11:00 +2°C° 0,3 mm 5 m/S 711 mmHg 83%
    12:00 +2°C° 0,3 mm 5 m/S 711 mmHg 83%
    13:00 +2°C° 0,3 mm 5 m/S 710 mmHg 83%
    14:00 +3°C° 0,4 mm 5 m/S 709 mmHg 82%
    15:00 +3°C° 0,4 mm 5 m/S 708 mmHg 81%
    16:00 +3°C° 0,4 mm 5 m/S 707 mmHg 80%
    17:00 +3°C° 2 mm 6 m/S 706 mmHg 82%
    18:00 +3°C° 2 mm 7 m/S 706 mmHg 83%
    19:00 +3°C° 2 mm 7 m/S 705 mmHg 85%
    20:00 +2°C° 2,2 mm 7 m/S 705 mmHg 85%
    21:00 +2°C° 2,2 mm 7 m/S 705 mmHg 85%
    22:00 +2°C° 2,2 mm 6 m/S 705 mmHg 84%
    23:00 +1°C° 0,3 mm 6 m/S 706 mmHg 84%

    15 Dezember, Freitag

    Zeit Temperatur Niederschläge Wind Luftdruck Luftfeuchtigkeit
    00:00 -1°C° 0,3 mm 6 m/S 707 mmHg 83%
    01:00 0°C° 0,3 mm 5 m/S 708 mmHg 83%
    02:00 -1°C° 0 mm 5 m/S 708 mmHg 83%
    03:00 -1°C° 0 mm 5 m/S 708 mmHg 84%
    04:00 -1°C° 0 mm 4 m/S 708 mmHg 85%
    05:00 -1°C° 0 mm 4 m/S 708 mmHg 85%
    06:00 -1°C° 0 mm 4 m/S 708 mmHg 85%
    07:00 -1°C° 0 mm 4 m/S 708 mmHg 85%
    08:00 -1°C° 0 mm 5 m/S 708 mmHg 83%
    09:00 -1°C° 0 mm 6 m/S 708 mmHg 81%
    10:00 -1°C° 0 mm 6 m/S 708 mmHg 79%
    11:00 -1°C° 0 mm 6 m/S 708 mmHg 77%
    12:00 0°C° 0 mm 7 m/S 708 mmHg 74%
    13:00 0°C° 0 mm 7 m/S 708 mmHg 72%
    14:00 0°C° 0,2 mm 7 m/S 708 mmHg 75%
    15:00 0°C° 0,2 mm 7 m/S 708 mmHg 78%
    16:00 -1°C° 0,2 mm 6 m/S 708 mmHg 81%
    17:00 -1°C° 0,2 mm 6 m/S 708 mmHg 82%
    18:00 -1°C° 0,2 mm 5 m/S 709 mmHg 83%
    19:00 -1°C° 0,2 mm 5 m/S 709 mmHg 84%
    20:00 -1°C° 0,4 mm 5 m/S 710 mmHg 85%
    21:00 -1°C° 0,4 mm 5 m/S 710 mmHg 86%
    22:00 -1°C° 0,4 mm 5 m/S 711 mmHg 87%
    23:00 -1°C° 0,2 mm 5 m/S 711 mmHg 87%

    16 Dezember, Samstag

    Zeit Temperatur Niederschläge Wind Luftdruck Luftfeuchtigkeit
    00:00 -1°C° 0,2 mm 5 m/S 712 mmHg 88%
    01:00 -2°C° 0,2 mm 4 m/S 712 mmHg 88%
    02:00 -2°C° 0,2 mm 5 m/S 713 mmHg 89%
    03:00 -2°C° 0,2 mm 5 m/S 714 mmHg 90%
    04:00 -2°C° 0,2 mm 5 m/S 714 mmHg 91%
    05:00 -2°C° 0,1 mm 5 m/S 715 mmHg 90%
    06:00 -2°C° 0,1 mm 5 m/S 715 mmHg 90%
    07:00 -2°C° 0,1 mm 5 m/S 716 mmHg 89%
    08:00 -2°C° 0,1 mm 5 m/S 717 mmHg 88%
    09:00 -2°C° 0,1 mm 5 m/S 717 mmHg 86%
    10:00 -2°C° 0,1 mm 5 m/S 718 mmHg 85%
    11:00 -1°C° 0 mm 5 m/S 718 mmHg 83%
    12:00 -1°C° 0 mm 5 m/S 718 mmHg 81%
    13:00 0°C° 0 mm 5 m/S 718 mmHg 79%
    14:00 -1°C° 0,2 mm 5 m/S 718 mmHg 81%
    15:00 -1°C° 0,2 mm 5 m/S 718 mmHg 84%
    16:00 -1°C° 0,2 mm 4 m/S 718 mmHg 86%
    17:00 -1°C° 0,4 mm 4 m/S 718 mmHg 88%
    18:00 -1°C° 0,4 mm 4 m/S 719 mmHg 89%
    19:00 -2°C° 0,4 mm 4 m/S 719 mmHg 90%
    20:00 -1°C° 0,4 mm 3 m/S 719 mmHg 91%
    21:00 -1°C° 0,4 mm 3 m/S 720 mmHg 92%
    22:00 -1°C° 0,4 mm 3 m/S 720 mmHg 93%
    23:00 -1°C° 0,2 mm 3 m/S 720 mmHg 94%

    17 Dezember, Sonntag

    Zeit Temperatur Niederschläge Wind Luftdruck Luftfeuchtigkeit
    00:00 -1°C° 0,2 mm 2 m/S 720 mmHg 94%
    01:00 -2°C° 0,2 mm 2 m/S 721 mmHg 95%
    02:00 -2°C° 0,1 mm 2 m/S 721 mmHg 95%
    03:00 -3°C° 0,1 mm 2 m/S 721 mmHg 95%
    04:00 -3°C° 0,1 mm 2 m/S 721 mmHg 95%
    05:00 -3°C° 0 mm 2 m/S 722 mmHg 94%
    06:00 -4°C° 0 mm 2 m/S 722 mmHg 94%
    07:00 -4°C° 0 mm 2 m/S 723 mmHg 94%
    08:00 -4°C° 0 mm 2 m/S 723 mmHg 93%
    09:00 -3°C° 0 mm 2 m/S 724 mmHg 91%
    10:00 -4°C° 0 mm 3 m/S 725 mmHg 90%
    11:00 -2°C° 0 mm 3 m/S 725 mmHg 88%
    12:00 -1°C° 0 mm 3 m/S 725 mmHg 87%
    13:00 -1°C° 0 mm 3 m/S 725 mmHg 85%
    14:00 -1°C° 0 mm 3 m/S 725 mmHg 86%
    15:00 -1°C° 0 mm 3 m/S 726 mmHg 87%
    16:00 -1°C° 0 mm 3 m/S 726 mmHg 88%
    17:00 -2°C° 0 mm 2 m/S 726 mmHg 89%
    18:00 -3°C° 0 mm 2 m/S 727 mmHg 90%
    19:00 -3°C° 0 mm 2 m/S 727 mmHg 91%
    20:00 -3°C° 0 mm 2 m/S 727 mmHg 91%
    21:00 -4°C° 0 mm 2 m/S 728 mmHg 91%
    22:00 -4°C° 0 mm 2 m/S 728 mmHg 91%
    23:00 -4°C° 0 mm 2 m/S 728 mmHg 90%
    Mehr zeigen